SCP
0 0 0 0 0 0 0 0 0 0 0 0 0 0 0 0 0 0 0 0 0 0 0 0 0 0 0 0 0 0 0 0 0 0 0 0 0 0 0 0 0 0 0 0
0 0 0 0 0 0 0 0 0 0 0 0 0 0 0 0 0 0 0 0 0 0 0 0 0 0 0 0 0 0 0 0 0 0 0 0 0 0 0 0 0 0 0 0
0 0 0 0 0 0 0 0 0 0 0 0 0 0 0 0 0 0 0 0 0 0 0 0 0 0 0 0 0 0 0 0 0 0 0 0 0 0 0 0 0 0 0 0
0 0 0 0 0 0 0 0 0 0 0 0 0 0 0 0 0 0 -0 0 0 0 0 0 0 0 0 0 0 0 0 0 0 0 0 0 0 0 0 0 0 0 0 0
0 0 0 0 0 0 0 0 0 0 0 0 0 0 0 0 0 0 -0 -0 -0 -0 -0 0 0 0 0 0 0 0 0 0 0 0 0 0 0 0 0 0 0 0 0 0
0 0 0 0 0 0 0 0 0 0 0 0 0 0 0 0 0 0 0 0 0 0 0 0 0 0 0 0 0 0 0 0 0 0 0 0 0 0 0 0 0 0 0 0
0 0 0 0 0 0 0 0 0 0 0 0 0 0 0 0 0 0 0 0 0 0 0 0 0 0 0 0 0 0 0 0 0 0 0 0 0 0 0 0 0 0 0 0
0 0 0 0 0 0 0 0 0 0 0 0 0 0 0 0 0 0 0 0 0 0 0 0 0 0 0 0 0 0 0 0 0 0 0 0 0 0 0 0 0 0 0 0
0 0 0 0 0 0 0 0 0 0 0 0 0 0 0 0 0 0 0 0 0 0 0 0 0 0 0 0 0 0 0 0 0 0 0 0 0 0 0 0 0 0 0 0
0 0 0 0 0 0 0 0 0 0 0 0 0 0 0 0 0 0 -0 -0 0 0 0 0 0 0 0 0 0 0 0 0 0 0 0 0 0 0 0 0 0 0 0 0
0 0 0 0 0 0 0 0 0 0 0 0 0 0 0 0 0 0 0 0 0 0 0 0 0 0 0 0 0 0 0 0 0 0 0 0 0 0 0 0 0 0 0 0
0 0 0 0 0 0 0 0 0 0 0 0 0 0 0 0 0 0 0 0 0 0 0 0 0 0 0 0 0 0 0 0 0 0 0 0 0 0 0 0 0 0 0 0
0 0 0 0 0 0 0 0 0 0 0 0 0 0 0 0 0 0 0 0 0 0 0 0 0 0 0 0 0 0 0 0 0 0 0 0 0 0 0 0 0 0 0 0
0 0 0 0 0 0 0 0 0 0 0 0 0 0 0 0 0 0 0 0 0 0 0 0 0 0 0 0 0 0 0 0 0 0 0 0 0 0 0 0 0 0 0 0
0 0 0 0 0 0 0 0 0 0 0 0 0 0 0 0 0 0 0 0 0 0 0 0 0 0 0 0 0 0 0 0 0 0 0 0 0 0 0 0 0 0 0 0
0 0 0 0 0 0 0 0 0 0 0 0 0 0 0 0 0 0 0 0 0 0 0 0 0 0 0 0 0 0 0 0 0 0 0 0 0 0 0 0 0 0 0 0
0 0 0 0 0 0 0 0 0 0 0 0 0 0 0 0 0 0 0 0 0 0 0 0 0 0 0 0 0 0 0 0 0 0 0 0 0 0 0 0 0 0 0 0
0 0 0 0 0 0 0 0 0 0 0 0 0 0 0 0 0 0 0 0 0 0 0 0 0 0 0 0 0 0 0 0 0 0 0 0 0 0 0 0 0 0 0 0
0 0 0 0 0 0 0 0 0 0 0 0 0 0 0 0 0 0 0 0 0 0 0 0 0 0 0 0 0 0 0 0 0 0 0 0 0 0 0 0 0 0 0 0
0 0 0 0 0 0 0 0 0 0 0 0 0 0 0 0 0 0 0 0 0 0 0 0 0 0 0 0 0 0 0 0 0 0 0 0 0 0 0 0 0 0 0 0
0 0 0 0 0 0 0 0 0 0 0 0 0 0 0 0 0 0 0 0 0 0 0 0 0 0 0 0 0 0 0 0 0 0 0 0 0 0 0 0 0 0 0 0
0 0 0 0 0 0 0 0 0 0 0 0 0 0 0 0 0 0 0 0 0 0 0 0 0 0 0 0 0 0 0 0 0 0 0 0 0 0 0 0 0 0 0 0
0 0 0 0 0 0 0 0 0 0 0 0 0 0 0 0 0 0 0 0 0 0 0 0 0 0 0 0 0 0 0 0 0 0 0 0 0 0 0 0 0 0 0 0
0 0 0 0 0 0 0 0 0 0 0 0 0 0 0 0 0 0 0 0 0 0 0 0 0 0 0 0 0 0 0 0 0 0 0 0 0 0 0 0 0 0 0 0
0 0 0 0 0 0 0 0 0 0 0 0 0 0 0 0 0 0 0 0 0 0 0 0 0 0 0 0 0 0 0 0 0 0 0 0 0 0 0 0 0 0 0 0
0 0 0 0 0 0 0 0 0 0 0 0 0 0 0 0 0 0 0 0 0 0 0 0 0 0 0 0 0 0 0 0 0 0 0 0 0 0 0 0 0 0 0 0
0 0 0 0 0 0 0 0 0 0 0 0 0 0 0 0 0 0 0 0 0 0 0 0 0 0 0 0 0 0 0 0 0 0 0 0 0 0 0 0 0 0 0 0
Wind_Speed
9 12 11 13 15 14 16 17 17 21 27 29 24 19 13 10 10 11 9 7 4 2 2 2 4 7 11 12 12 13 13 13 13 13 13 14 14 13 12 11 12 10 10 8
7 12 13 16 17 16 15 15 16 21 23 17 14 11 8 7 8 9 8 6 4 3 5 7 9 10 11 11 11 11 13 13 14 15 14 13 13 13 12 12 10 9 8 6
5 6 9 8 5 5 7 9 11 13 13 14 13 9 6 6 7 6 5 4 2 6 8 10 10 10 10 10 11 12 13 15 15 15 14 12 13 13 12 11 9 8 6 5
5 7 4 1 6 6 9 12 11 11 12 10 7 4 6 8 7 5 3 3 7 10 11 11 11 11 11 12 13 13 14 15 15 15 14 12 12 12 10 8 7 6 5 4
3 5 8 3 2 3 4 7 4 6 9 8 3 1 6 11 9 7 8 10 11 11 12 12 12 13 14 14 14 14 15 15 13 12 13 12 12 10 8 7 6 5 4 3
3 4 4 2 1 2 2 5 3 6 8 8 5 3 5 9 10 11 12 12 12 13 13 13 12 13 15 15 14 14 13 13 12 11 11 12 10 8 7 6 6 4 3 2
5 5 7 5 2 2 3 5 7 6 6 5 4 4 5 8 10 11 12 13 13 13 12 12 12 13 15 14 14 13 13 12 11 10 11 10 9 7 7 5 4 2 2 1
5 6 7 2 3 3 4 4 5 4 4 5 6 7 8 8 9 10 11 12 11 12 12 11 11 13 15 14 13 12 12 12 11 10 9 8 8 6 5 4 3 2 1 2
6 7 5 3 2 3 4 4 4 3 5 7 7 7 8 9 8 8 9 9 9 11 13 11 9 9 15 13 12 12 12 12 10 9 7 6 6 5 4 3 3 2 2 2
5 7 6 2 4 5 5 4 4 3 5 6 8 8 8 8 8 8 8 9 10 12 14 12 10 9 12 11 11 12 12 10 7 7 7 6 5 4 3 3 3 3 3 3
6 8 4 4 4 3 4 5 5 6 6 7 8 9 8 8 8 8 8 9 9 11 14 13 11 10 10 9 11 12 10 8 6 6 5 5 4 3 4 4 3 2 2 2
4 2 2 2 3 4 4 5 6 6 7 7 7 8 8 8 7 8 9 10 10 11 13 12 11 10 8 8 8 10 8 6 5 4 4 3 3 2 2 2 2 1 3 4
5 1 2 3 4 4 6 6 6 7 8 8 7 8 8 8 8 9 10 10 11 11 12 11 11 9 7 7 8 8 7 6 4 4 4 3 3 3 3 2 2 5 5 7
0 1 1 3 4 6 7 8 8 8 8 8 8 9 8 10 10 10 10 10 10 11 11 11 11 9 7 8 9 8 7 7 6 4 4 3 3 2 2 2 3 3 5 9
1 1 2 6 7 8 7 8 9 9 9 9 8 8 9 11 11 10 9 9 10 11 10 10 10 8 7 7 8 8 6 4 4 3 3 3 2 2 2 2 2 3 3 5
2 3 4 5 7 7 7 9 9 10 9 10 9 9 10 10 10 9 8 7 9 10 8 9 8 6 6 7 8 6 5 7 5 3 2 2 2 2 2 2 3 3 3 3
3 3 5 6 7 8 7 7 9 10 10 11 11 12 12 11 11 9 8 8 9 9 8 8 7 6 6 7 6 4 4 3 4 3 2 2 2 2 2 2 3 3 3 6
6 5 7 7 9 9 8 9 10 10 11 12 12 12 11 11 11 10 9 9 10 9 7 7 7 7 7 6 5 4 3 2 2 2 2 2 2 2 3 3 3 4 3 5
6 3 4 6 8 9 9 10 10 11 12 12 12 11 10 10 11 10 9 9 10 8 5 6 11 7 6 5 5 3 3 2 1 1 1 4 3 3 3 3 3 4 4 5
4 2 2 4 6 8 9 10 11 11 11 12 12 12 11 10 9 9 8 6 4 5 6 7 7 6 5 4 4 3 2 1 1 1 2 2 3 3 3 3 4 4 4 4
5 3 4 5 6 7 8 10 11 12 10 11 12 13 12 10 8 8 9 7 5 7 7 10 5 4 4 3 3 2 1 1 2 2 2 2 3 3 3 3 4 5 5 5
4 3 4 6 7 7 7 7 9 11 11 11 11 12 12 11 9 8 6 5 6 10 6 4 4 5 5 3 2 1 1 2 2 2 2 3 3 3 3 4 4 5 5 5
3 3 3 5 6 7 7 7 8 9 10 12 13 13 11 9 7 8 7 5 5 10 6 4 7 7 5 2 2 1 2 2 2 3 3 3 3 3 3 4 4 5 5 5
3 3 4 5 6 7 7 7 7 7 9 9 8 9 10 9 6 4 6 12 12 10 5 7 9 6 4 2 1 1 2 2 2 3 3 3 3 3 4 4 5 5 5 6
3 3 3 5 5 4 6 8 10 10 10 8 9 7 5 5 6 7 6 8 12 10 5 6 7 4 2 1 1 1 2 3 3 3 3 3 4 4 4 5 5 5 6 6
1 1 2 2 4 5 5 6 7 7 8 9 7 6 6 6 8 7 7 7 9 9 6 3 3 2 1 1 2 2 3 4 4 3 4 4 5 5 5 5 7 6 6 6
0 2 3 3 4 4 4 5 7 8 8 10 9 7 7 7 7 8 8 6 5 5 4 3 2 1 0 1 2 3 3 3 4 4 4 4 4 5 5 7 6 6 6 7
Wind_Direction
259 275 273 261 261 254 246 250 261 273 279 287 294 296 289 276 272 276 283 285 277 248 189 159 102 99 104 106 109 117 124 127 126 122 118 115 115 116 115 111 107 103 102 102
264 258 257 259 258 258 258 256 258 272 281 287 295 295 293 290 289 287 288 279 249 178 139 118 107 105 103 106 113 121 124 121 117 115 113 113 114 113 107 103 102 102 105 111
279 302 296 266 238 246 260 265 267 277 286 308 315 320 319 318 312 303 295 277 154 119 111 105 105 108 107 108 110 113 115 114 112 112 111 112 115 110 107 107 107 106 106 105
289 308 284 191 172 218 258 272 268 274 295 313 323 360 18 0 338 333 350 89 98 98 96 96 100 100 100 102 106 108 109 109 111 114 116 116 112 107 107 108 108 108 108 105
276 289 277 275 188 218 265 284 303 313 318 325 325 84 31 14 19 39 61 78 85 91 96 97 98 102 104 103 104 107 110 113 117 120 119 114 108 106 106 105 102 102 101 98
249 285 282 333 91 129 245 261 23 356 339 336 349 21 15 24 43 57 65 75 84 90 94 96 98 104 107 108 109 110 113 114 114 114 113 109 105 101 97 97 102 108 113 117
231 255 272 296 323 299 287 311 348 360 2 8 52 70 72 63 68 73 77 81 88 93 96 102 107 110 111 112 112 114 114 111 109 106 103 101 99 95 97 100 106 115 133 191
202 225 254 295 334 319 299 326 346 12 57 82 95 92 86 82 83 92 98 102 104 106 108 113 118 119 115 112 114 114 111 106 101 96 97 98 97 94 93 92 83 69 55 30
210 232 279 325 341 8 19 346 355 31 105 119 112 105 101 94 88 87 94 101 103 105 103 100 101 111 111 109 111 109 103 98 94 88 85 90 95 97 88 73 68 46 38 27
278 273 284 12 59 41 38 18 20 56 117 125 120 115 109 106 102 99 94 94 99 101 100 95 93 95 104 109 109 105 101 97 94 92 87 78 72 72 76 68 55 38 27 16
261 273 278 100 69 49 62 66 62 61 85 112 122 119 116 111 109 105 99 95 99 105 104 102 101 98 96 101 103 99 96 93 89 86 92 89 82 74 73 83 89 58 16 4
246 316 13 48 75 66 85 89 95 96 92 94 107 114 112 107 103 103 103 103 103 103 103 102 98 93 88 90 97 101 98 92 88 87 83 83 81 72 112 115 89 346 306 306
263 34 84 109 91 85 98 99 101 105 108 106 103 107 110 109 107 106 107 107 109 107 105 102 95 87 79 83 87 89 93 92 85 81 77 66 54 42 17 332 282 296 304 312
20 127 221 166 134 110 105 103 100 98 97 100 105 106 108 108 106 106 108 111 111 108 104 100 93 82 75 80 84 83 81 78 79 71 64 59 52 34 19 5 341 329 334 329
260 165 108 108 110 113 120 122 118 114 112 109 109 111 111 111 109 106 105 106 104 100 97 95 90 81 76 81 83 80 75 67 68 71 59 48 38 20 1 350 331 316 317 329
85 91 121 138 146 147 150 147 137 133 130 125 118 112 110 110 109 106 103 104 107 104 100 97 90 84 80 81 82 78 72 66 58 49 52 40 20 357 348 341 327 319 320 313
168 205 199 188 176 171 169 158 146 141 136 129 124 121 121 119 113 105 96 91 95 95 96 99 95 85 76 76 83 92 97 79 46 35 45 32 357 342 338 327 315 310 307 314
250 236 199 189 180 174 166 149 142 139 136 130 129 130 131 128 122 115 110 104 98 89 84 92 94 85 76 71 74 75 83 83 56 36 16 1 341 327 316 308 308 310 311 322
281 257 204 184 170 164 155 146 142 134 133 136 137 134 126 122 122 121 119 114 112 109 106 111 113 97 87 76 75 69 73 68 33 10 355 331 332 317 314 312 311 311 317 322
357 15 125 134 138 143 143 140 137 137 141 140 132 126 124 125 127 125 116 106 111 125 128 122 109 105 100 81 71 73 64 45 1 340 335 327 321 318 317 315 314 313 315 316
7 41 89 108 112 118 129 137 143 143 140 137 137 136 133 130 127 121 117 110 107 120 125 127 111 108 105 108 79 74 55 16 349 340 333 324 318 315 314 314 318 319 316 314
9 51 90 108 114 115 120 129 137 138 135 131 129 131 132 131 125 112 106 125 135 133 120 112 110 121 122 109 77 67 38 356 335 328 321 317 314 312 311 314 311 306 301 297
18 64 101 116 123 123 119 124 134 138 137 138 141 143 140 136 135 133 129 134 135 134 120 119 131 130 118 88 67 37 0 338 327 322 318 312 304 301 300 299 294 292 292 292
26 61 91 110 120 127 130 124 118 117 118 120 126 132 134 129 114 103 125 142 141 127 116 133 133 127 110 86 53 2 334 322 313 307 303 298 294 291 288 287 286 285 285 288
49 72 96 120 129 127 122 119 115 117 118 117 114 110 109 115 124 126 123 132 135 122 114 132 133 123 96 63 5 328 312 295 287 290 286 292 291 288 284 281 280 282 284 285
53 110 125 128 123 126 136 138 138 138 135 130 121 111 107 107 112 115 112 113 120 122 116 109 114 116 75 354 322 307 298 301 310 307 290 285 281 281 281 282 284 283 282 282
122 120 110 103 121 141 150 151 150 152 150 144 134 127 123 118 116 115 113 110 110 113 117 122 128 127 324 311 303 295 290 286 284 281 280 278 277 277 280 282 282 282 283 284